Regional Weather Roundup
Issued by NWS

Home | Current Version | Previous Version | Text Only | Print | Product List | Glossary On
Versions: 1 2 3 4 5 6 7 8 9 10 11 12 13 14 15 16 17 18 19 20 21 22 23 24 25 26 27 28 29 30 31 32 33 34 35 36 37 38 39 40 41 42 43 44 45 46 47 48 49 50
000
ASHW40 PHFO 020843
RWRHI

WEATHER ROUNDUP FOR HAWAII
NATIONAL WEATHER SERVICE HONOLULU HI
1000 PM HST FRI AUG 01 2014

THIS IS AN AUTOMATED REPORT THAT HAS NOT BEEN QUALITY CONTROLLED.

NOTE..."FAIR" INDICATES FEW OR NO CLOUDS BELOW 12,000 FEET WITH NO
SIGNIFICANT WEATHER AND/OR OBSTRUCTIONS TO VISIBILITY.

* - THESE SITES REPORT LIMITED FIELDS

HIZ001>004-020900-
KAUAI-NIIHAU-

CITY           SKY/WX    TMP DP  RH WIND       PRES   REMARKS
LIHUE APT      CLOUDY    79  70  73 E14       30.03S
PORT ALLEN*      N/A     79 N/A N/A E13G20      N/A
POIPU*           N/A     79 N/A N/A NE10G18     N/A
PRINCEVILLE*   NOT AVBL
KOKOLE POINT*  NOT AVBL
MOLOAA DAIRY*  NOT AVBL
WAIMEA HTS*      N/A     75  63  64 NE3G10      N/A
PUU OPAE*        N/A     68  61  77 E1          N/A
PUU LUA*       NOT AVBL
MAKAHA RIDGE*  NOT AVBL
$$

HIZ005>011-020900-
OAHU-

CITY           SKY/WX    TMP DP  RH WIND       PRES   REMARKS
HONOLULU       PTCLDY    80  70  71 NE13      29.99R
KALAELOA       PTCLDY    78  69  73 VRB3      30.01R
KANEOHE MCB    CLOUDY    77  70  78 E7        30.02S
WHEELER FIELD  FAIR      75  69  80 CALM      30.02R
BELLOWS*         N/A    N/A N/A N/A NE14        N/A
KAHUKU*          N/A    N/A N/A N/A NE9G17      N/A
WHEELER*       NOT AVBL
WAIANAE HARBOR NOT AVBL
DILLINGHAM*      N/A     75  68  78 E2          N/A
KAHUKU TRN*      N/A     73  72  94 E10G24      N/A
KAWAILOA*      NOT AVBL
KII*             N/A     79  73  83 CALM        N/A
MAKUA RANGE*     N/A     79  68  69 E6G18       N/A
OAHU FOREST NW   N/A     70  70 100 W14G28      N/A
SCHOFIELD BRK*   N/A     73  68  83 S1          N/A
SCHOFIELD S*   NOT AVBL
WAIANAE VLY*     N/A     75  66  73 W5G20       N/A
KUAOKALA*        N/A     73  68  83 CALM        N/A
HONOULIUULI*   NOT AVBL
MOKUOLOE IS*     N/A    N/A N/A N/A MISG        N/A
PALEHUA*         N/A     81  72  74 CALM        N/A
WAIAWA PHB*    NOT AVBL
$$

HIZ012>013-020900-
MOLOKAI-

CITY           SKY/WX    TMP DP  RH WIND       PRES   REMARKS
MOLOKAI AIRPT  CLEAR     77  72  84 NE10G17   30.00R
KALAUPAPA      NOT AVBL
MAKAPULAPAI*     N/A     79  70  73 E18G26      N/A
MOLOKAI 1*       N/A     70  68  94 W2G9        N/A
PUU ALII*        N/A     63  63  99 E3G14       N/A
$$

HIZ016-020900-
KAHOOLAWE-

CITY           SKY/WX    TMP DP  RH WIND       PRES   REMARKS
KAHOOLAWE*       N/A     72 N/A N/A E21G30      N/A
HAKIOAWA*        N/A     74  71  89 MISG      30.12
HONOKANAIA*      N/A     80  73  77 NE16G29   29.99S
KANELOA*         N/A     73  72  94 E21G33    30.08S
KEALIALALO*      N/A    N/A N/A N/A E18G33    30.29
LUA MAKIKA*    NOT AVBL
$$

HIZ014>015-020900-
LANAI-

CITY           SKY/WX    TMP DP  RH WIND       PRES   REMARKS
LANAI CITY     MOCLDY    74  71  90 E7        30.05R
LANAI 1*         N/A     73  73 100 NE13G30     N/A
$$

HIZ017>028-020900-
MAUI-

CITY           SKY/WX    TMP DP  RH WIND       PRES   REMARKS
KAHULUI        CLOUDY    78  70  76 NE14      29.99R
KAPALUA-W MAUI NOT AVBL
HANA AIRPORT   CLOUDY    75  73  94 E2        30.05S
HANA*            N/A     75 N/A N/A S3          N/A
HALEAKALA SUMM   N/A     48  48 100 E24         N/A
MAALAEA BAY*   NOT AVBL
HALEAKALA*     NOT AVBL
KAUPO GAP*       N/A     64  61  88 E5G13       N/A
KULA 1*          N/A     58  56  92 E3          N/A
$$

HIZ023>026-020900-
BIG ISLAND OF HAWAII COAST AND LOWER SLOPES-

CITY           SKY/WX    TMP DP  RH WIND       PRES   REMARKS
KAILUA KONA    CLOUDY    80  71  74 N3        29.95R
HILO           CLOUDY    76  74  93 CALM      30.02R
HONOKAA*       NOT AVBL
KAWAIHAE MWT*    N/A     79 N/A N/A NW3         N/A
KAWAIHAE*        N/A     79 N/A N/A N3          N/A
SOUTH POINT*     N/A     72 N/A N/A NE23G31     N/A
UPOLU AIRPORT*   N/A    N/A N/A N/A E16G25      N/A
KAMUELA*       MOSUNNY   68  68 100 NE14      30.10R
HAKALAU*         N/A     59  59  99 E3G9        N/A
KALOKO-HONOKO*   N/A     81  70  69 NW3       29.94R
PALI 2*          N/A     68  68 100 NE7         N/A
KEALAKOMO*       N/A     75  73  94 NE7G18      N/A
KAUPULEHU*       N/A     75  66  73 E7          N/A
KAPAPALA*        N/A     70  68  94 E2G10       N/A
LOWER KAHUKU*  NOT AVBL
PUHE CS*       NOT AVBL
PUHO CS*         N/A     79  69  72 E1          N/A
PTA KEAMUKU*     N/A     66  64  94 SE10        N/A
WAIKOLOA*        N/A     77  70  78 W6          N/A
$$

HIZ027>028-020900-
BIG ISLAND OF HAWAII INTERIOR AND SUMMMITS-

CITY           SKY/WX    TMP DP  RH WIND       PRES   REMARKS
BRADSHAW FIELD PTCLDY    62  57  84 SE14G22   30.34R
MK VISITOR CEN NOT AVBL
MAUNA KEA*       N/A     37  37 100 SE12        N/A  WCI  30
MAUNA LOA*       N/A     46  43  87 MISG        N/A
MAUNA LOA 1*   NOT AVBL
PTA KIPUKA*      N/A    N/A N/A N/A S8G20       N/A
PTA RANGE 17*    N/A     63  57  82 E16G26      N/A
PTA WEST*        N/A     64  63  94 W12G18      N/A
NENE CABIN*    NOT AVBL
AHUMOA*          N/A     58  57  98 NE3         N/A
PTA PORTABLE*  NOT AVBL
PUU MALI*      NOT AVBL
$$

HIC003-020900-
NORTHWEST ISLANDS-

CITY           SKY/WX    TMP DP  RH WIND       PRES   REMARKS
MIDWAY ISLAND  CLEAR     79  70  73 NE6       30.02R
MIDWAY NOS*    NOT AVBL
FRENCH FRIGATE NOT AVBL
$$

PHZ110>124-180-020900-
BUOY REPORTS

STATION/POSITION TIME  TEMP    WIND        PRES    WAVE   SWELL
                       AIR SEA DIR/SP/G            HT/PER HT/DIR
                 (UTC) (F)     (DEG/KT/KT) (MB)    (FT/S) (FT/D)
BUOY 51001       NOT AVBL
BUOY 51101       NOT AVBL
BUOY 51100       0700   78 78   90/ 16/ 17 1017.0R
BUOY 51003       0800   81 82   60/ 14/ 16 1015.0R   6/ 9   5
BUOY 51004       0656   79 80   70/ 17/ 21 1014.2R   8/ 8   5/130
BARBERS PT BUOY  NOT AVBL
WAIMEA BAY BUOY  0800      80                N/A     3/ 5
KAILUA BAY BUOY  0800      80                N/A     6/ 6   2/130
LANAI BUOY       0800      81                N/A     3/14   2/210
BARBERS PT 2     0800      81                N/A     4/14   2/200
PAUWELA MAUI     0800      79                N/A     7/ 7   2/100
HILO             NOT AVBL
KANEOHE BAY BUOY 0800      79                N/A     5/ 6
HANALEI KAUAI    NOT AVBL
KAHULUI HARBOR   0800   78 81   50/ 19/ 22 1015.6R
HONOLULU HARBOR  0800   80      70/  3/  5 1016.0R
KILO NALU        NOT AVBL
HILO HARBOR      0800   75     230/  3/  4 1016.1R
MOKUOLOE         0800      83              1016.7R
NAWILIWILI       0800      82                N/A
WHOTS BUOY       NOT AVBL
BUOY 51028       NOT AVBL
$$

......................KEY........................................
  SKY/WX - SKY CONDITIONS/PRESENT WEATHER
  TMP    - TEMPERATURE IN FAHRENHEIT
  DWPT   - DEWPOINT IN FAHRENHEIT
  RH     - RELATIVE HUMIDITY IN PERCENT
  WIND   - DIRECTION AND SPEED /MPH FOR ISLANDS...KTS FOR BUOYS/
  PRES   - MEAN SEA LEVEL PRESSURE IN INCHES OF HG
  VSB    - VISIBILITY IN MILES
  HX     - HEAT INDEX
  WCI    - WIND CHILL INDEX
  VRB    - VARIABLE WIND DIRECTION
  N/A    - NOT AVAILABLE



USA.gov is the U.S. government's official web portal to all federal, state and local government web resources and services.